OCO 2

Last updated on Fri Dec 19 2025 00:03:36 GMT+0000 (Coordinated Universal Time)

1 40059U 14035A 25352.55415812 .00000404 00000+0 99808-4 0 9994 2 40059 98.2223 291.4312 0001314 97.5153 262.6195 14.57054059609744
UTC large
Height (km)
Speed (km/s)
/
Latitude / Longitude
Inclination (degrees)
Orbital Period (minutes)
Azimuth
Elevation
Range (km)
Doppler Factor

Next 0 passes for location: London (51.5072 / 0.1276)

Sorry there are no passes over London.